Location: ??
(31.9467°N, 34.8903°E)
Time: 12:34:42
(UTC+00:00)

Timation 2 Rocket - Pass Details

Date: 29 October 2020
Orbit: 904 x 1077 km, 70.0° (Epoch: 26 November)

Event Time Altitude Azimuth Distance (km) Brightness Sun altitude
Rises 15:50:20 0° 336° (NNW) 3,784 7.3 -12.7°
Reaches altitude 10° 15:52:55 10° 334° (NNW) 2,850 6.7 -13.2°
Maximum altitude 15:59:36 74° 252° (WSW) 1,106 4.4 -14.6°
Drops below altitude 10° 16:06:26 10° 168° (SSE) 2,902 6.4 -16.1°
Sets 16:09:05 0° 166° (SSE) 3,856 7.0 -16.6°
